When you browse on this site, cookies collect data to enhance your experience and personalize the content and advertising you see.
Visit our Privacy Policy to learn more. By continuing to use the site, you agree to this use of cookies and data.
  • In Österreich
  • Länderverzeichnis
  • Für 7 Tage
  • Wassertemperatur
  • Wetterkarte
  • News
  • Widgets
  • user-avatar
    Anmelden

    Stündliche Wetter Tezontepec de Aldama

    Heute, 17 August, Samstag

    Zeit Temperatur Niederschläge Wind Luftdruck Luftfeuchtigkeit
    00:00 +14°C° 0 mm 0 m/S 599 mmHg 92%
    01:00 +14°C° 0 mm 0 m/S 599 mmHg 93%
    02:00 +13°C° 0 mm 0 m/S 598 mmHg 93%
    03:00 +13°C° 0 mm 0 m/S 598 mmHg 92%
    04:00 +13°C° 0 mm 0 m/S 598 mmHg 92%
    05:00 +13°C° 0 mm 0 m/S 598 mmHg 91%
    06:00 +15°C° 0 mm 0 m/S 599 mmHg 84%
    07:00 +17°C° 0 mm 0 m/S 600 mmHg 76%
    08:00 +19°C° 0 mm 0 m/S 601 mmHg 68%
    09:00 +23°C° 0 mm 1 m/S 602 mmHg 63%
    10:00 +24°C° 0 mm 1 m/S 602 mmHg 58%
    11:00 +25°C° 0 mm 1 m/S 602 mmHg 52%
    12:00 +26°C° 0 mm 2 m/S 602 mmHg 49%
    13:00 +27°C° 0 mm 3 m/S 601 mmHg 47%
    14:00 +28°C° 0 mm 3 m/S 601 mmHg 44%
    15:00 +27°C° 0.2 mm 4 m/S 601 mmHg 51%
    16:00 +25°C° 0.2 mm 5 m/S 600 mmHg 57%
    17:00 +23°C° 0.2 mm 5 m/S 599 mmHg 64%
    18:00 +21°C° 0.2 mm 4 m/S 599 mmHg 73%
    19:00 +19°C° 0.2 mm 3 m/S 599 mmHg 83%
    20:00 +18°C° 0.2 mm 1 m/S 599 mmHg 92%
    21:00 +18°C° 0 mm 1 m/S 599 mmHg 92%
    22:00 +16°C° 0 mm 1 m/S 599 mmHg 93%
    23:00 +15°C° 0 mm 0 m/S 599 mmHg 94%

    Morgen, 18 August, Sonntag

    Zeit Temperatur Niederschläge Wind Luftdruck Luftfeuchtigkeit
    00:00 +14°C° 0 mm 0 m/S 598 mmHg 94%
    01:00 +14°C° 0 mm 0 m/S 598 mmHg 93%
    02:00 +14°C° 0 mm 0 m/S 598 mmHg 93%
    03:00 +13°C° 0 mm 0 m/S 598 mmHg 93%
    04:00 +13°C° 0 mm 0 m/S 598 mmHg 92%
    05:00 +13°C° 0 mm 0 m/S 598 mmHg 92%
    06:00 +15°C° 0 mm 0 m/S 599 mmHg 84%
    07:00 +17°C° 0 mm 0 m/S 600 mmHg 77%
    08:00 +19°C° 0 mm 0 m/S 601 mmHg 69%
    09:00 +22°C° 0 mm 1 m/S 601 mmHg 61%
    10:00 +24°C° 0 mm 1 m/S 601 mmHg 53%
    11:00 +26°C° 0 mm 2 m/S 602 mmHg 45%
    12:00 +26°C° 0 mm 3 m/S 601 mmHg 44%
    13:00 +27°C° 0 mm 4 m/S 601 mmHg 43%
    14:00 +27°C° 0 mm 5 m/S 601 mmHg 42%
    15:00 +26°C° 0.1 mm 5 m/S 600 mmHg 50%
    16:00 +25°C° 0.1 mm 5 m/S 599 mmHg 58%
    17:00 +23°C° 0.1 mm 5 m/S 599 mmHg 66%
    18:00 +21°C° 0.3 mm 4 m/S 599 mmHg 75%
    19:00 +19°C° 0.3 mm 3 m/S 599 mmHg 84%
    20:00 +17°C° 0.3 mm 2 m/S 599 mmHg 92%
    21:00 +18°C° 0 mm 1 m/S 599 mmHg 94%
    22:00 +16°C° 0 mm 1 m/S 599 mmHg 95%
    23:00 +16°C° 0 mm 1 m/S 598 mmHg 97%

    übermorgen, 19 August, Montag

    Zeit Temperatur Niederschläge Wind Luftdruck Luftfeuchtigkeit
    00:00 +15°C° 0 mm 1 m/S 598 mmHg 97%
    01:00 +15°C° 0 mm 1 m/S 598 mmHg 97%
    02:00 +14°C° 0 mm 0 m/S 597 mmHg 97%
    03:00 +14°C° 0 mm 0 m/S 598 mmHg 97%
    04:00 +14°C° 0 mm 0 m/S 598 mmHg 96%
    05:00 +15°C° 0 mm 1 m/S 598 mmHg 95%
    06:00 +16°C° 0 mm 1 m/S 599 mmHg 90%
    07:00 +18°C° 0 mm 1 m/S 599 mmHg 84%
    08:00 +19°C° 0 mm 1 m/S 600 mmHg 78%
    09:00 +19°C° 0 mm 2 m/S 600 mmHg 73%
    10:00 +21°C° 0 mm 2 m/S 600 mmHg 68%
    11:00 +22°C° 0 mm 3 m/S 601 mmHg 62%
    12:00 +22°C° 0.3 mm 4 m/S 600 mmHg 63%
    13:00 +23°C° 0.3 mm 5 m/S 600 mmHg 63%
    14:00 +23°C° 0.3 mm 7 m/S 599 mmHg 64%
    15:00 +22°C° 0.3 mm 7 m/S 599 mmHg 67%
    16:00 +21°C° 0.3 mm 6 m/S 599 mmHg 70%
    17:00 +20°C° 0.3 mm 6 m/S 599 mmHg 74%
    18:00 +19°C° 0 mm 5 m/S 599 mmHg 80%
    19:00 +18°C° 0 mm 3 m/S 599 mmHg 87%
    20:00 +16°C° 0 mm 2 m/S 599 mmHg 94%
    21:00 +16°C° 0 mm 2 m/S 599 mmHg 95%
    22:00 +15°C° 0 mm 1 m/S 599 mmHg 96%
    23:00 +15°C° 0 mm 1 m/S 599 mmHg 97%

    20 August, Dienstag

    Zeit Temperatur Niederschläge Wind Luftdruck Luftfeuchtigkeit
    00:00 +14°C° 0 mm 1 m/S 599 mmHg 97%
    01:00 +14°C° 0 mm 1 m/S 598 mmHg 97%
    02:00 +14°C° 0 mm 1 m/S 598 mmHg 97%
    03:00 +13°C° 0 mm 1 m/S 598 mmHg 96%
    04:00 +13°C° 0 mm 1 m/S 598 mmHg 95%
    05:00 +13°C° 0 mm 1 m/S 598 mmHg 94%
    06:00 +14°C° 0 mm 1 m/S 599 mmHg 87%
    07:00 +15°C° 0 mm 1 m/S 600 mmHg 79%
    08:00 +18°C° 0 mm 1 m/S 600 mmHg 71%
    09:00 +19°C° 0 mm 2 m/S 601 mmHg 64%
    10:00 +21°C° 0 mm 3 m/S 601 mmHg 56%
    11:00 +23°C° 0 mm 4 m/S 602 mmHg 48%
    12:00 +23°C° 0 mm 5 m/S 601 mmHg 51%
    13:00 +23°C° 0 mm 6 m/S 601 mmHg 53%
    14:00 +23°C° 0 mm 7 m/S 600 mmHg 55%
    15:00 +22°C° 0.1 mm 7 m/S 600 mmHg 61%
    16:00 +21°C° 0.1 mm 7 m/S 600 mmHg 66%
    17:00 +20°C° 0.1 mm 7 m/S 600 mmHg 72%
    18:00 +17°C° 0 mm 5 m/S 600 mmHg 78%
    19:00 +17°C° 0 mm 3 m/S 600 mmHg 85%
    20:00 +15°C° 0 mm 2 m/S 600 mmHg 92%
    21:00 +15°C° 0 mm 1 m/S 600 mmHg 94%
    22:00 +14°C° 0 mm 1 m/S 600 mmHg 95%
    23:00 +14°C° 0 mm 1 m/S 600 mmHg 97%

    21 August, Mittwoch

    Zeit Temperatur Niederschläge Wind Luftdruck Luftfeuchtigkeit
    00:00 +14°C° 0 mm 1 m/S 600 mmHg 96%
    01:00 +14°C° 0 mm 1 m/S 599 mmHg 96%
    02:00 +14°C° 0 mm 1 m/S 599 mmHg 95%
    03:00 +14°C° 0 mm 1 m/S 599 mmHg 94%
    04:00 +14°C° 0 mm 1 m/S 599 mmHg 93%
    05:00 +14°C° 0 mm 1 m/S 600 mmHg 92%
    06:00 +15°C° 0 mm 1 m/S 600 mmHg 86%
    07:00 +16°C° 0 mm 1 m/S 601 mmHg 81%
    08:00 +18°C° 0 mm 1 m/S 601 mmHg 76%
    09:00 +19°C° 0 mm 1 m/S 601 mmHg 70%
    10:00 +20°C° 0 mm 2 m/S 601 mmHg 65%
    11:00 +21°C° 0 mm 3 m/S 601 mmHg 60%
    12:00 +22°C° 0.1 mm 3 m/S 601 mmHg 59%
    13:00 +22°C° 0.1 mm 4 m/S 601 mmHg 58%
    14:00 +23°C° 0.1 mm 5 m/S 601 mmHg 58%
    15:00 +22°C° 0.6 mm 5 m/S 600 mmHg 64%
    16:00 +21°C° 0.6 mm 5 m/S 600 mmHg 71%
    17:00 +19°C° 0.6 mm 5 m/S 600 mmHg 77%
    18:00 +18°C° 0.3 mm 4 m/S 600 mmHg 82%
    19:00 +17°C° 0.3 mm 3 m/S 600 mmHg 88%
    20:00 +16°C° 0.3 mm 2 m/S 600 mmHg 93%
    21:00 +16°C° 0 mm 1 m/S 600 mmHg 93%
    22:00 +16°C° 0 mm 1 m/S 600 mmHg 93%
    23:00 +16°C° 0 mm 1 m/S 600 mmHg 93%

    22 August, Donnerstag

    Zeit Temperatur Niederschläge Wind Luftdruck Luftfeuchtigkeit
    00:00 +16°C° 0 mm 1 m/S 600 mmHg 93%
    01:00 +15°C° 0 mm 0 m/S 600 mmHg 93%
    02:00 +15°C° 0 mm 0 m/S 599 mmHg 93%
    03:00 +14°C° 0 mm 0 m/S 599 mmHg 94%
    04:00 +14°C° 0 mm 0 m/S 599 mmHg 94%
    05:00 +15°C° 0 mm 1 m/S 599 mmHg 95%
    06:00 +15°C° 0 mm 0 m/S 600 mmHg 89%
    07:00 +16°C° 0 mm 0 m/S 601 mmHg 83%
    08:00 +17°C° 0 mm 0 m/S 601 mmHg 78%
    09:00 +19°C° 0.3 mm 0 m/S 602 mmHg 71%
    10:00 +22°C° 0.3 mm 1 m/S 602 mmHg 65%
    11:00 +24°C° 0.3 mm 1 m/S 602 mmHg 59%
    12:00 +24°C° 1.2 mm 2 m/S 602 mmHg 59%
    13:00 +24°C° 1.2 mm 3 m/S 601 mmHg 59%
    14:00 +25°C° 1.2 mm 3 m/S 601 mmHg 59%
    15:00 +22°C° 1.7 mm 3 m/S 601 mmHg 66%
    16:00 +21°C° 1.7 mm 4 m/S 600 mmHg 73%
    17:00 +20°C° 1.7 mm 4 m/S 600 mmHg 80%
    18:00 +19°C° 2.2 mm 3 m/S 600 mmHg 83%
    19:00 +18°C° 2.2 mm 2 m/S 600 mmHg 87%
    20:00 +18°C° 2.2 mm 1 m/S 600 mmHg 90%
    21:00 +18°C° 2.1 mm 1 m/S 600 mmHg 91%
    22:00 +18°C° 2.1 mm 1 m/S 600 mmHg 91%
    23:00 +16°C° 2.1 mm 1 m/S 600 mmHg 92%
    Mehr zeigen